Location: Luz Observatory
(34.5000°N, 117.2833°W)
Time: 17:26:19
(UTC-07:00)

Cosmos 1484 Rocket - Visible Passes

Search period start: 23 September 2014 00:00
Search period end: 03 October 2014 00:00
Orbit: 516 x 573 km, 97.4° (Epoch: 22 September)

Date Brightness Start Highest point End Pass type
(mag) Time Alt. Az. Time Alt. Az. Time Alt. Az.
23 Sep 3.2 19:51:26 22° SE 19:53:28 39° ENE 19:57:07 10° N visible
23 Sep 5.9 21:27:18 10° WSW 21:28:17 11° W 21:29:17 10° WNW visible
24 Sep 3.5 19:45:34 20° ESE 19:47:32 33° ENE 19:51:04 10° N visible
24 Sep 5.7 21:21:11 12° WSW 21:22:16 13° W 21:24:07 10° WNW visible
25 Sep 3.7 19:39:42 19° ESE 19:41:36 28° ENE 19:44:58 10° NNE visible
25 Sep 5.5 21:15:18 15° WSW 21:16:15 16° W 21:18:38 10° NW visible
26 Sep 3.9 19:33:49 17° ESE 19:35:39 24° ENE 19:38:50 10° NNE visible
26 Sep 5.3 21:09:26 18° WSW 21:10:14 19° W 21:13:00 10° NW visible
27 Sep 4.1 19:27:57 15° ESE 19:29:43 21° ENE 19:32:40 10° NNE visible
27 Sep 5.0 21:03:33 21° WSW 21:04:12 22° W 21:07:18 10° NW visible
28 Sep 4.3 19:22:04 14° E 19:23:47 18° ENE 19:26:26 10° NNE visible
28 Sep 4.8 20:57:40 25° WSW 20:58:11 26° W 21:01:31 10° NW visible
29 Sep 4.5 19:16:11 12° E 19:17:51 15° ENE 19:20:08 10° NNE visible
29 Sep 4.5 20:51:47 30° WSW 20:52:10 31° W 20:55:42 10° NNW visible
30 Sep 4.7 19:10:18 11° E 19:11:55 13° ENE 19:13:43 10° NE visible
30 Sep 4.1 20:45:54 37° WSW 20:46:09 37° W 20:49:50 10° NNW visible
01 Oct 4.8 19:04:55 10° E 19:05:59 11° ENE 19:07:03 10° NE visible
01 Oct 3.8 20:40:01 44° WSW 20:40:08 45° W 20:43:57 10° NNW visible
02 Oct 3.4 20:34:07 54° W 20:34:07 54° W 20:38:01 10° NNW visible
